Year,Month,Day,Hour,Minute,Value (Times are PST for temperature in C)
2009,05,31,00,00,15.00
2009,05,31,00,01,15.00
2009,05,31,00,02,15.00
2009,05,31,00,03,15.00
2009,05,31,00,04,15.00
2009,05,31,00,05,15.00
2009,05,31,00,06,15.00
2009,05,31,00,07,15.00
2009,05,31,00,08,15.00
2009,05,31,00,09,15.00
2009,05,31,00,10,15.00
2009,05,31,00,11,15.00
2009,05,31,00,12,15.00
2009,05,31,00,13,15.00
2009,05,31,00,14,15.00
2009,05,31,00,15,15.00
2009,05,31,00,16,15.00
2009,05,31,00,17,15.00
2009,05,31,00,18,15.00
2009,05,31,00,19,15.00
2009,05,31,00,20,15.00
2009,05,31,00,21,15.00
2009,05,31,00,22,15.00
2009,05,31,00,23,15.00
2009,05,31,00,24,15.00
2009,05,31,00,25,15.00
2009,05,31,00,26,15.00
2009,05,31,00,27,15.00
2009,05,31,00,28,15.00
2009,05,31,00,29,15.00
2009,05,31,00,30,15.00
2009,05,31,00,31,15.00
2009,05,31,00,32,15.00
2009,05,31,00,33,15.00
2009,05,31,00,34,15.00
2009,05,31,00,35,15.00
2009,05,31,00,36,15.00
2009,05,31,00,37,14.90
2009,05,31,00,38,14.80
2009,05,31,00,39,14.80
2009,05,31,00,40,14.80
2009,05,31,00,41,14.80
2009,05,31,00,42,14.70
2009,05,31,00,43,14.70
2009,05,31,00,44,14.70
2009,05,31,00,45,14.70
2009,05,31,00,46,14.60
2009,05,31,00,47,14.60
2009,05,31,00,48,14.60
2009,05,31,00,49,14.50
2009,05,31,00,50,14.50
2009,05,31,00,51,14.40
2009,05,31,00,52,14.40
2009,05,31,00,53,14.40
2009,05,31,00,54,14.40
2009,05,31,00,55,14.40
2009,05,31,00,56,14.40
2009,05,31,00,57,14.40
2009,05,31,00,58,14.40
2009,05,31,00,59,14.40
2009,05,31,01,00,14.40
2009,05,31,01,01,14.40
2009,05,31,01,02,14.40
2009,05,31,01,03,14.40
2009,05,31,01,04,14.30
2009,05,31,01,05,14.30
2009,05,31,01,06,14.30
2009,05,31,01,07,14.30
2009,05,31,01,08,14.40
2009,05,31,01,09,14.40
2009,05,31,01,10,14.40
2009,05,31,01,11,14.40
2009,05,31,01,12,14.40
2009,05,31,01,13,14.40
2009,05,31,01,14,14.40
2009,05,31,01,15,14.30
2009,05,31,01,16,14.30
2009,05,31,01,17,14.30
2009,05,31,01,18,14.30
2009,05,31,01,19,14.30
2009,05,31,01,20,14.30
2009,05,31,01,21,14.30
2009,05,31,01,22,14.20
2009,05,31,01,23,14.20
2009,05,31,01,24,14.20
2009,05,31,01,25,14.20
2009,05,31,01,26,14.20
2009,05,31,01,27,14.20
2009,05,31,01,28,14.20
2009,05,31,01,29,14.20
2009,05,31,01,30,14.20
2009,05,31,01,31,14.20
2009,05,31,01,32,14.20
2009,05,31,01,33,14.20
2009,05,31,01,34,14.20
2009,05,31,01,35,14.20
2009,05,31,01,36,14.20
2009,05,31,01,37,14.30
2009,05,31,01,38,14.30
2009,05,31,01,39,14.30
2009,05,31,01,40,14.30
2009,05,31,01,41,14.30
2009,05,31,01,42,14.30
2009,05,31,01,43,14.30
2009,05,31,01,44,14.30
2009,05,31,01,45,14.20
2009,05,31,01,49,14.20
2009,05,31,01,50,14.20
2009,05,31,01,51,14.20
2009,05,31,01,52,14.20
2009,05,31,01,53,14.20
2009,05,31,01,54,14.20
2009,05,31,01,55,14.20
2009,05,31,01,56,14.30
2009,05,31,01,57,14.30
2009,05,31,01,58,14.30
2009,05,31,01,59,14.30
2009,05,31,02,00,14.30
2009,05,31,02,01,14.30
2009,05,31,02,02,14.30
2009,05,31,02,03,14.30
2009,05,31,02,04,14.30
2009,05,31,02,05,14.30
2009,05,31,02,06,14.20
2009,05,31,02,07,14.20
2009,05,31,02,08,14.20
2009,05,31,02,09,14.20
2009,05,31,02,10,14.20
2009,05,31,02,11,14.20
2009,05,31,02,12,14.20
2009,05,31,02,13,14.20
2009,05,31,02,14,14.20
2009,05,31,02,15,14.20
2009,05,31,02,16,14.10
2009,05,31,02,17,14.10
2009,05,31,02,18,14.10
2009,05,31,02,19,14.10
2009,05,31,02,20,14.00
2009,05,31,02,21,14.00
2009,05,31,02,22,14.00
2009,05,31,02,23,13.90
2009,05,31,02,24,13.90
2009,05,31,02,25,13.90
2009,05,31,02,26,13.90
2009,05,31,02,27,13.80
2009,05,31,02,28,13.80
2009,05,31,02,29,13.80
2009,05,31,02,30,13.80
2009,05,31,02,31,13.80
2009,05,31,02,32,13.70
2009,05,31,02,33,13.70
2009,05,31,02,34,13.70
2009,05,31,02,35,13.70
2009,05,31,02,36,13.70
2009,05,31,02,37,13.70
2009,05,31,02,38,13.70
2009,05,31,02,39,13.70
2009,05,31,02,40,13.70
2009,05,31,02,41,13.70
2009,05,31,02,42,13.70
2009,05,31,02,43,13.70
2009,05,31,02,44,13.70
2009,05,31,02,45,13.70
2009,05,31,02,46,13.70
2009,05,31,02,47,13.70
2009,05,31,02,48,13.60
2009,05,31,02,49,13.70
2009,05,31,02,50,13.70
2009,05,31,02,51,13.70
2009,05,31,02,52,13.60
2009,05,31,02,53,13.60
2009,05,31,02,54,13.60
2009,05,31,02,55,13.60
2009,05,31,02,56,13.60
2009,05,31,02,57,13.60
2009,05,31,02,58,13.60
2009,05,31,02,59,13.60
2009,05,31,03,00,13.60
2009,05,31,03,01,13.60
2009,05,31,03,02,13.60
2009,05,31,03,03,13.60
2009,05,31,03,04,13.60
2009,05,31,03,05,13.60
2009,05,31,03,06,13.60
2009,05,31,03,07,13.60
2009,05,31,03,08,13.50
2009,05,31,03,09,13.50
2009,05,31,03,10,13.50
2009,05,31,03,11,13.50
2009,05,31,03,12,13.40
2009,05,31,03,13,13.40
2009,05,31,03,14,13.40
2009,05,31,03,15,13.40
2009,05,31,03,16,13.30
2009,05,31,03,17,13.30
2009,05,31,03,18,13.30
2009,05,31,03,19,13.30
2009,05,31,03,20,13.30
2009,05,31,03,21,13.30
2009,05,31,03,22,13.30
2009,05,31,03,23,13.30
2009,05,31,03,24,13.30
2009,05,31,03,25,13.30
2009,05,31,03,26,13.30
2009,05,31,03,27,13.30
2009,05,31,03,28,13.30
2009,05,31,03,29,13.30
2009,05,31,03,30,13.30
2009,05,31,03,31,13.20
2009,05,31,03,32,13.20
2009,05,31,03,33,13.20
2009,05,31,03,34,13.20
2009,05,31,03,35,13.30
2009,05,31,03,36,13.20
2009,05,31,03,37,13.20
2009,05,31,03,38,13.20
2009,05,31,03,39,13.20
2009,05,31,03,40,13.20
2009,05,31,03,41,13.20
2009,05,31,03,42,13.20
2009,05,31,03,43,13.20
2009,05,31,03,44,13.20
2009,05,31,03,45,13.20
2009,05,31,03,46,13.20
2009,05,31,03,47,13.20
2009,05,31,03,48,13.20
2009,05,31,03,49,13.20
2009,05,31,03,50,13.20
2009,05,31,03,51,13.20
2009,05,31,03,52,13.20
2009,05,31,03,53,13.20
2009,05,31,03,54,13.20
2009,05,31,03,55,13.20
2009,05,31,03,56,13.20
2009,05,31,03,57,13.20
2009,05,31,03,58,13.20
2009,05,31,03,59,13.20
2009,05,31,04,00,13.20
2009,05,31,04,01,13.20
2009,05,31,04,02,13.20
2009,05,31,04,03,13.20
2009,05,31,04,04,13.20
2009,05,31,04,05,13.20
2009,05,31,04,06,13.20
2009,05,31,04,07,13.20
2009,05,31,04,08,13.20
2009,05,31,04,09,13.20
2009,05,31,04,10,13.20
2009,05,31,04,11,13.10
2009,05,31,04,12,13.10
2009,05,31,04,13,13.10
2009,05,31,04,14,13.00
2009,05,31,04,15,13.00
2009,05,31,04,16,13.00
2009,05,31,04,17,12.90
2009,05,31,04,18,12.90
2009,05,31,04,19,12.90
2009,05,31,04,20,12.80
2009,05,31,04,21,12.80
2009,05,31,04,22,12.80
2009,05,31,04,23,12.80
2009,05,31,04,24,12.80
2009,05,31,04,25,12.80
2009,05,31,04,26,12.70
2009,05,31,04,27,12.70
2009,05,31,04,28,12.70
2009,05,31,04,29,12.70
2009,05,31,04,30,12.70
2009,05,31,04,31,12.60
2009,05,31,04,32,12.60
2009,05,31,04,33,12.60
2009,05,31,04,34,12.60
2009,05,31,04,35,12.60
2009,05,31,04,36,12.60
2009,05,31,04,37,12.60
2009,05,31,04,38,12.50
2009,05,31,04,39,12.50
2009,05,31,04,40,12.50
2009,05,31,04,41,12.50
2009,05,31,04,42,12.40
2009,05,31,04,43,12.40
2009,05,31,04,44,12.40
2009,05,31,04,45,12.40
2009,05,31,04,46,12.30
2009,05,31,04,47,12.30
2009,05,31,04,48,12.30
2009,05,31,04,49,12.30
2009,05,31,04,50,12.20
2009,05,31,04,51,12.20
2009,05,31,04,52,12.20
2009,05,31,04,53,12.10
2009,05,31,04,54,12.10
2009,05,31,04,55,12.10
2009,05,31,04,56,12.10
2009,05,31,04,57,12.00
2009,05,31,04,58,12.00
2009,05,31,04,59,11.90
2009,05,31,05,00,11.90
2009,05,31,05,01,11.90
2009,05,31,05,02,11.90
2009,05,31,05,03,11.90
2009,05,31,05,04,11.80
2009,05,31,05,05,11.80
2009,05,31,05,06,11.80
2009,05,31,05,07,11.80
2009,05,31,05,08,11.70
2009,05,31,05,09,11.70
2009,05,31,05,10,11.70
2009,05,31,05,11,11.70
2009,05,31,05,12,11.70
2009,05,31,05,13,11.70
2009,05,31,05,14,11.70
2009,05,31,05,15,11.70
2009,05,31,05,16,11.70
2009,05,31,05,17,11.70
2009,05,31,05,18,11.70
2009,05,31,05,19,11.70
2009,05,31,05,20,11.70
2009,05,31,05,21,11.70
2009,05,31,05,22,11.70
2009,05,31,05,23,11.70
2009,05,31,05,24,11.70
2009,05,31,05,25,11.70
2009,05,31,05,26,11.70
2009,05,31,05,27,11.70
2009,05,31,05,28,11.70
2009,05,31,05,29,11.70
2009,05,31,05,30,11.70
2009,05,31,05,31,11.70
2009,05,31,05,32,11.60
2009,05,31,05,33,11.60
2009,05,31,05,34,11.60
2009,05,31,05,35,11.60
2009,05,31,05,36,11.60
2009,05,31,05,37,11.60
2009,05,31,05,38,11.60
2009,05,31,05,39,11.50
2009,05,31,05,40,11.50
2009,05,31,05,41,11.50
2009,05,31,05,42,11.50
2009,05,31,05,43,11.50
2009,05,31,05,44,11.40
2009,05,31,05,45,11.40
2009,05,31,05,46,11.40
2009,05,31,05,47,11.40
2009,05,31,05,48,11.50
2009,05,31,05,49,11.50
2009,05,31,05,50,11.50
2009,05,31,05,51,11.50
2009,05,31,05,52,11.60
2009,05,31,05,53,11.60
2009,05,31,05,54,11.60
2009,05,31,05,55,11.60
2009,05,31,05,56,11.60
2009,05,31,05,57,11.60
2009,05,31,05,58,11.60
2009,05,31,05,59,11.70
2009,05,31,06,00,11.70
2009,05,31,06,01,11.70
2009,05,31,06,02,11.70
2009,05,31,06,03,11.70
2009,05,31,06,04,11.80
2009,05,31,06,05,11.80
2009,05,31,06,06,11.80
2009,05,31,06,07,11.80
2009,05,31,06,08,11.80
2009,05,31,06,09,11.80
2009,05,31,06,10,11.80
2009,05,31,06,11,11.80
2009,05,31,06,12,11.90
2009,05,31,06,13,11.90
2009,05,31,06,14,11.90
2009,05,31,06,15,11.90
2009,05,31,06,16,11.90
2009,05,31,06,17,12.00
2009,05,31,06,18,12.00
2009,05,31,06,19,12.00
2009,05,31,06,20,12.00
2009,05,31,06,21,12.10
2009,05,31,06,22,12.10
2009,05,31,06,23,12.10
2009,05,31,06,24,12.10
2009,05,31,06,25,12.10
2009,05,31,06,26,12.20
2009,05,31,06,27,12.20
2009,05,31,06,28,12.20
2009,05,31,06,29,12.20
2009,05,31,06,30,12.20
2009,05,31,06,31,12.20
2009,05,31,06,32,12.20
2009,05,31,06,33,12.20
2009,05,31,06,34,12.20
2009,05,31,06,35,12.20
2009,05,31,06,36,12.20
2009,05,31,06,37,12.20
2009,05,31,06,38,12.20
2009,05,31,06,39,12.20
2009,05,31,06,40,12.30
2009,05,31,06,41,12.30
2009,05,31,06,42,12.30
2009,05,31,06,43,12.30
2009,05,31,06,44,12.40
2009,05,31,06,45,12.40
2009,05,31,06,46,12.40
2009,05,31,06,47,12.40
2009,05,31,06,48,12.40
2009,05,31,06,49,12.40
2009,05,31,06,50,12.40
2009,05,31,06,51,12.40
2009,05,31,06,52,12.40
2009,05,31,06,53,12.40
2009,05,31,06,54,12.40
2009,05,31,06,55,12.40
2009,05,31,06,56,12.40
2009,05,31,06,57,12.40
2009,05,31,06,58,12.40
2009,05,31,06,59,12.40
2009,05,31,07,00,12.40
2009,05,31,07,01,12.40
2009,05,31,07,02,12.40
2009,05,31,07,03,12.40
2009,05,31,07,04,12.40
2009,05,31,07,05,12.50
2009,05,31,07,06,12.50
2009,05,31,07,07,12.50
2009,05,31,07,08,12.60
2009,05,31,07,09,12.60
2009,05,31,07,10,12.60
2009,05,31,07,11,12.60
2009,05,31,07,12,12.60
2009,05,31,07,13,12.70
2009,05,31,07,14,12.70
2009,05,31,07,15,12.70
2009,05,31,07,16,12.70
2009,05,31,07,17,12.70
2009,05,31,07,18,12.70
2009,05,31,07,19,12.70
2009,05,31,07,20,12.70
2009,05,31,07,21,12.80
2009,05,31,07,22,12.80
2009,05,31,07,23,12.80
2009,05,31,07,24,12.90
2009,05,31,07,25,12.90
2009,05,31,07,26,12.90
2009,05,31,07,27,12.90
2009,05,31,07,28,12.90
2009,05,31,07,29,12.90
2009,05,31,07,30,12.90
2009,05,31,07,31,12.90
2009,05,31,07,32,12.90
2009,05,31,07,33,13.00
2009,05,31,07,34,13.00
2009,05,31,07,35,13.00
2009,05,31,07,36,13.00
2009,05,31,07,37,13.00
2009,05,31,07,38,13.00
2009,05,31,07,39,13.00
2009,05,31,07,40,13.00
2009,05,31,07,41,13.00
2009,05,31,07,42,13.00
2009,05,31,07,43,13.00
2009,05,31,07,44,13.00
2009,05,31,07,45,13.00
2009,05,31,07,46,13.00
2009,05,31,07,47,13.10
2009,05,31,07,48,13.10
2009,05,31,07,49,13.10
2009,05,31,07,50,13.10
2009,05,31,07,51,13.10
2009,05,31,07,52,13.10
2009,05,31,07,53,13.10
2009,05,31,07,54,13.10
2009,05,31,07,55,13.10
2009,05,31,07,56,13.10
2009,05,31,07,57,13.10
2009,05,31,07,58,13.20
2009,05,31,07,59,13.20
2009,05,31,08,00,13.20
2009,05,31,08,01,13.20
2009,05,31,08,02,13.20
2009,05,31,08,03,13.20
2009,05,31,08,04,13.20
2009,05,31,08,05,13.30
2009,05,31,08,06,13.30
2009,05,31,08,07,13.30
2009,05,31,08,08,13.30
2009,05,31,08,09,13.30
2009,05,31,08,10,13.30
2009,05,31,08,11,13.30
2009,05,31,08,12,13.30
2009,05,31,08,13,13.30
2009,05,31,08,14,13.30
2009,05,31,08,15,13.30
2009,05,31,08,16,13.30
2009,05,31,08,17,13.30
2009,05,31,08,18,13.30
2009,05,31,08,19,13.30
2009,05,31,08,20,13.30
2009,05,31,08,21,13.30
2009,05,31,08,22,13.30
2009,05,31,08,23,13.30
2009,05,31,08,24,13.40
2009,05,31,08,25,13.40
2009,05,31,08,26,13.40
2009,05,31,08,27,13.40
2009,05,31,08,28,13.40
2009,05,31,08,29,13.40
2009,05,31,08,30,13.40
2009,05,31,08,31,13.40
2009,05,31,08,32,13.40
2009,05,31,08,33,13.40
2009,05,31,08,34,13.40
2009,05,31,08,35,13.40
2009,05,31,08,36,13.40
2009,05,31,08,37,13.40
2009,05,31,08,38,13.40
2009,05,31,08,39,13.40
2009,05,31,08,40,13.50
2009,05,31,08,41,13.50
2009,05,31,08,42,13.50
2009,05,31,08,43,13.50
2009,05,31,08,44,13.50
2009,05,31,08,45,13.60
2009,05,31,08,46,13.60
2009,05,31,08,47,13.60
2009,05,31,08,48,13.60
2009,05,31,08,49,13.60
2009,05,31,08,50,13.60
2009,05,31,08,51,13.70
2009,05,31,08,52,13.70
2009,05,31,08,53,13.70
2009,05,31,08,54,13.70
2009,05,31,08,55,13.70
2009,05,31,08,56,13.70
2009,05,31,08,57,13.70
2009,05,31,08,58,13.70
2009,05,31,08,59,13.70
2009,05,31,09,00,13.70
2009,05,31,09,01,13.70
2009,05,31,09,02,13.80
2009,05,31,09,03,13.80
2009,05,31,09,04,13.80
2009,05,31,09,05,13.80
2009,05,31,09,06,13.80
2009,05,31,09,07,13.80
2009,05,31,09,08,13.80
2009,05,31,09,09,13.90
2009,05,31,09,10,13.90
2009,05,31,09,11,13.90
2009,05,31,09,12,14.00
2009,05,31,09,13,14.00
2009,05,31,09,14,14.10
2009,05,31,09,15,14.10
2009,05,31,09,16,14.20
2009,05,31,09,17,14.30
2009,05,31,09,18,14.40
2009,05,31,09,19,14.40
2009,05,31,09,20,14.50
2009,05,31,09,21,14.60
2009,05,31,09,22,14.60
2009,05,31,09,23,14.70
2009,05,31,09,24,14.80
2009,05,31,09,25,14.90
2009,05,31,09,26,15.00
2009,05,31,09,27,15.00
2009,05,31,09,28,15.00
2009,05,31,09,29,15.00
2009,05,31,09,30,15.00
2009,05,31,09,31,15.00
2009,05,31,09,32,15.10
2009,05,31,09,33,15.20
2009,05,31,09,34,15.20
2009,05,31,09,35,15.20
2009,05,31,09,36,15.30
2009,05,31,09,37,15.30
2009,05,31,09,38,15.30
2009,05,31,09,39,15.20
2009,05,31,09,40,15.20
2009,05,31,09,41,15.30
2009,05,31,09,42,15.30
2009,05,31,09,43,15.40
2009,05,31,09,44,15.40
2009,05,31,09,45,15.50
2009,05,31,09,46,15.50
2009,05,31,09,47,15.60
2009,05,31,09,48,15.70
2009,05,31,09,49,15.80
2009,05,31,09,50,15.80
2009,05,31,09,51,15.90
2009,05,31,09,52,15.90
2009,05,31,09,53,16.00
2009,05,31,09,54,16.10
2009,05,31,09,55,16.10
2009,05,31,09,56,16.20
2009,05,31,09,57,16.20
2009,05,31,09,58,16.30
2009,05,31,09,59,16.30
2009,05,31,10,00,16.30
2009,05,31,10,01,16.30
2009,05,31,10,02,16.40
2009,05,31,10,03,16.40
2009,05,31,10,04,16.50
2009,05,31,10,05,16.50
2009,05,31,10,06,16.60
2009,05,31,10,07,16.60
2009,05,31,10,08,16.60
2009,05,31,10,09,16.60
2009,05,31,10,10,16.60
2009,05,31,10,11,16.60
2009,05,31,10,12,16.60
2009,05,31,10,13,16.60
2009,05,31,10,14,16.60
2009,05,31,10,15,16.60
2009,05,31,10,16,16.60
2009,05,31,10,17,16.60
2009,05,31,10,18,16.60
2009,05,31,10,19,16.60
2009,05,31,10,20,16.60
2009,05,31,10,21,16.60
2009,05,31,10,22,16.70
2009,05,31,10,23,16.70
2009,05,31,10,24,16.70
2009,05,31,10,25,16.70
2009,05,31,10,26,16.60
2009,05,31,10,27,16.60
2009,05,31,10,28,16.50
2009,05,31,10,29,16.50
2009,05,31,10,30,16.40
2009,05,31,10,31,16.50
2009,05,31,10,32,16.40
2009,05,31,10,33,16.50
2009,05,31,10,34,16.40
2009,05,31,10,35,16.40
2009,05,31,10,36,16.30
2009,05,31,10,37,16.30
2009,05,31,10,38,16.30
2009,05,31,10,39,16.30
2009,05,31,10,40,16.20
2009,05,31,10,41,16.30
2009,05,31,10,42,16.30
2009,05,31,10,43,16.30
2009,05,31,10,44,16.30
2009,05,31,10,45,16.30
2009,05,31,10,46,16.30
2009,05,31,10,47,16.30
2009,05,31,10,48,16.30
2009,05,31,10,49,16.30
2009,05,31,10,50,16.30
2009,05,31,10,51,16.30
2009,05,31,10,52,16.30
2009,05,31,10,53,16.30
2009,05,31,10,54,16.30
2009,05,31,10,55,16.20
2009,05,31,10,56,16.20
2009,05,31,10,57,16.20
2009,05,31,10,58,16.10
2009,05,31,10,59,16.20
2009,05,31,11,00,16.20
2009,05,31,11,01,16.20
2009,05,31,11,02,16.20
2009,05,31,11,03,16.20
2009,05,31,11,04,16.30
2009,05,31,11,05,16.30
2009,05,31,11,06,16.40
2009,05,31,11,07,16.40
2009,05,31,11,08,16.40
2009,05,31,11,09,16.50
2009,05,31,11,10,16.50
2009,05,31,11,11,16.60
2009,05,31,11,12,16.70
2009,05,31,11,13,16.80
2009,05,31,11,14,16.90
2009,05,31,11,15,16.90
2009,05,31,11,16,17.00
2009,05,31,11,17,17.00
2009,05,31,11,18,17.10
2009,05,31,11,19,17.10
2009,05,31,11,20,17.20
2009,05,31,11,21,17.20
2009,05,31,11,22,17.20
2009,05,31,11,23,17.20
2009,05,31,11,24,17.10
2009,05,31,11,25,17.00
2009,05,31,11,26,16.90
2009,05,31,11,27,16.90
2009,05,31,11,28,16.80
2009,05,31,11,29,16.70
2009,05,31,11,30,16.60
2009,05,31,11,31,16.50
2009,05,31,11,32,16.40
2009,05,31,11,33,16.40
2009,05,31,11,34,16.30
2009,05,31,11,35,16.20
2009,05,31,11,36,16.10
2009,05,31,11,37,16.00
2009,05,31,11,38,15.90
2009,05,31,11,39,15.80
2009,05,31,11,40,15.90
2009,05,31,11,41,15.80
2009,05,31,11,42,15.80
2009,05,31,11,43,15.80
2009,05,31,11,44,15.80
2009,05,31,11,45,15.80
2009,05,31,11,46,15.90
2009,05,31,11,47,15.90
2009,05,31,11,48,15.90
2009,05,31,11,49,15.90
2009,05,31,11,50,15.90
2009,05,31,11,51,15.90
2009,05,31,11,52,15.90
2009,05,31,11,53,15.90
2009,05,31,11,54,15.90
2009,05,31,11,55,16.00
2009,05,31,11,56,16.00
2009,05,31,11,57,16.00
2009,05,31,11,58,16.00
2009,05,31,11,59,16.00
2009,05,31,12,00,16.00
2009,05,31,12,01,16.00
2009,05,31,12,02,16.10
2009,05,31,12,03,16.10
2009,05,31,12,04,16.10
2009,05,31,12,05,16.10
2009,05,31,12,06,16.20
2009,05,31,12,07,16.10
2009,05,31,12,08,16.20
2009,05,31,12,09,16.20
2009,05,31,12,10,16.30
2009,05,31,12,11,16.30
2009,05,31,12,12,16.40
2009,05,31,12,13,16.50
2009,05,31,12,14,16.60
2009,05,31,12,15,16.60
2009,05,31,12,16,16.70
2009,05,31,12,17,16.70
2009,05,31,12,18,16.80
2009,05,31,12,19,16.80
2009,05,31,12,20,16.80
2009,05,31,12,21,16.80
2009,05,31,12,22,16.80
2009,05,31,12,23,16.90
2009,05,31,12,24,16.90
2009,05,31,12,25,16.90
2009,05,31,12,26,16.90
2009,05,31,12,27,16.90
2009,05,31,12,28,16.80
2009,05,31,12,29,16.80
2009,05,31,12,30,16.80
2009,05,31,12,31,16.80
2009,05,31,12,32,16.80
2009,05,31,12,33,16.80
2009,05,31,12,34,16.80
2009,05,31,12,35,16.90
2009,05,31,12,36,16.90
2009,05,31,12,37,17.00
2009,05,31,12,38,17.00
2009,05,31,12,39,17.10
2009,05,31,12,40,17.20
2009,05,31,12,41,17.20
2009,05,31,12,42,17.20
2009,05,31,12,43,17.30
2009,05,31,12,44,17.40
2009,05,31,12,45,17.50
2009,05,31,12,46,17.60
2009,05,31,12,47,17.70
2009,05,31,12,48,17.80
2009,05,31,12,49,17.90
2009,05,31,12,50,18.00
2009,05,31,12,51,18.20
2009,05,31,12,52,18.30
2009,05,31,12,53,18.40
2009,05,31,12,54,18.50
2009,05,31,12,55,18.60
2009,05,31,12,56,18.70
2009,05,31,12,57,18.80
2009,05,31,12,58,18.80
2009,05,31,12,59,19.00
2009,05,31,13,00,19.10
2009,05,31,13,01,19.20
2009,05,31,13,02,19.30
2009,05,31,13,03,19.40
2009,05,31,13,04,19.60
2009,05,31,13,05,19.70
2009,05,31,13,06,19.90
2009,05,31,13,07,20.00
2009,05,31,13,08,20.10
2009,05,31,13,09,20.10
2009,05,31,13,10,20.20
2009,05,31,13,11,20.30
2009,05,31,13,12,20.30
2009,05,31,13,13,20.40
2009,05,31,13,14,20.40
2009,05,31,13,15,20.50
2009,05,31,13,16,20.60
2009,05,31,13,17,20.60
2009,05,31,13,18,20.70
2009,05,31,13,19,20.80
2009,05,31,13,20,20.80
2009,05,31,13,21,20.90
2009,05,31,13,22,21.00
2009,05,31,13,23,21.00
2009,05,31,13,24,21.00
2009,05,31,13,25,21.00
2009,05,31,13,26,21.00
2009,05,31,13,27,21.00
2009,05,31,13,28,21.00
2009,05,31,13,29,21.00
2009,05,31,13,30,21.10
2009,05,31,13,31,21.10
2009,05,31,13,32,21.00
2009,05,31,13,33,21.00
2009,05,31,13,34,21.00
2009,05,31,13,35,21.00
2009,05,31,13,36,20.90
2009,05,31,13,37,21.00
2009,05,31,13,38,21.00
2009,05,31,13,39,21.10
2009,05,31,13,40,21.10
2009,05,31,13,41,21.00
2009,05,31,13,42,20.90
2009,05,31,13,43,20.90
2009,05,31,13,44,20.80
2009,05,31,13,45,20.80
2009,05,31,13,46,20.70
2009,05,31,13,47,20.50
2009,05,31,13,48,20.40
2009,05,31,13,49,20.20
2009,05,31,13,50,20.20
2009,05,31,13,51,20.10
2009,05,31,13,52,20.00
2009,05,31,13,53,19.90
2009,05,31,13,54,19.80
2009,05,31,13,55,19.70
2009,05,31,13,56,19.60
2009,05,31,13,57,19.50
2009,05,31,13,58,19.40
2009,05,31,13,59,19.40
2009,05,31,14,00,19.40
2009,05,31,14,01,19.40
2009,05,31,14,02,19.40
2009,05,31,14,03,19.40
2009,05,31,14,04,19.40
2009,05,31,14,05,19.40
2009,05,31,14,06,19.40
2009,05,31,14,07,19.30
2009,05,31,14,08,19.30
2009,05,31,14,09,19.30
2009,05,31,14,10,19.30
2009,05,31,14,11,19.40
2009,05,31,14,12,19.40
2009,05,31,14,13,19.50
2009,05,31,14,14,19.60
2009,05,31,14,15,19.60
2009,05,31,14,16,19.70
2009,05,31,14,17,19.80
2009,05,31,14,18,19.80
2009,05,31,14,19,19.90
2009,05,31,14,20,19.90
2009,05,31,14,21,20.10
2009,05,31,14,22,20.20
2009,05,31,14,23,20.30
2009,05,31,14,24,20.30
2009,05,31,14,25,20.40
2009,05,31,14,26,20.50
2009,05,31,14,27,20.50
2009,05,31,14,28,20.60
2009,05,31,14,29,20.70
2009,05,31,14,30,20.70
2009,05,31,14,31,20.60
2009,05,31,14,32,20.60
2009,05,31,14,33,20.60
2009,05,31,14,34,20.70
2009,05,31,14,35,20.70
2009,05,31,14,36,20.70
2009,05,31,14,37,20.70
2009,05,31,14,38,20.70
2009,05,31,14,39,20.70
2009,05,31,14,40,20.70
2009,05,31,14,41,20.70
2009,05,31,14,42,20.70
2009,05,31,14,43,20.70
2009,05,31,14,44,20.80
2009,05,31,14,45,20.80
2009,05,31,14,46,20.90
2009,05,31,14,47,20.90
2009,05,31,14,48,20.90
2009,05,31,14,49,20.80
2009,05,31,14,50,20.80
2009,05,31,14,51,20.80
2009,05,31,14,52,20.80
2009,05,31,14,53,20.80
2009,05,31,14,54,20.80
2009,05,31,14,55,20.80
2009,05,31,14,56,20.80
2009,05,31,14,57,20.80
2009,05,31,14,58,20.80
2009,05,31,14,59,20.90
2009,05,31,15,00,20.90
2009,05,31,15,01,21.00
2009,05,31,15,02,21.10
2009,05,31,15,03,21.10
2009,05,31,15,04,21.10
2009,05,31,15,05,21.10
2009,05,31,15,06,21.10
2009,05,31,15,07,21.00
2009,05,31,15,08,21.00
2009,05,31,15,09,21.00
2009,05,31,15,10,21.00
2009,05,31,15,11,20.90
2009,05,31,15,12,20.90
2009,05,31,15,13,20.80
2009,05,31,15,14,20.80
2009,05,31,15,15,20.70
2009,05,31,15,16,20.70
2009,05,31,15,17,20.80
2009,05,31,15,18,20.80
2009,05,31,15,19,20.90
2009,05,31,15,20,21.00
2009,05,31,15,21,21.00
2009,05,31,15,22,21.00
2009,05,31,15,23,21.00
2009,05,31,15,24,21.00
2009,05,31,15,25,21.00
2009,05,31,15,26,20.90
2009,05,31,15,27,21.00
2009,05,31,15,28,21.00
2009,05,31,15,29,21.00
2009,05,31,15,30,21.00
2009,05,31,15,31,20.90
2009,05,31,15,32,20.90
2009,05,31,15,33,20.80
2009,05,31,15,34,20.80
2009,05,31,15,35,20.80
2009,05,31,15,36,20.80
2009,05,31,15,37,20.80
2009,05,31,15,38,20.80
2009,05,31,15,39,20.80
2009,05,31,15,40,20.80
2009,05,31,15,41,20.80
2009,05,31,15,42,20.80
2009,05,31,15,43,20.80
2009,05,31,15,44,20.80
2009,05,31,15,45,20.80
2009,05,31,15,46,20.70
2009,05,31,15,47,20.70
2009,05,31,15,48,20.70
2009,05,31,15,49,20.70
2009,05,31,15,50,20.70
2009,05,31,15,51,20.70
2009,05,31,15,52,20.70
2009,05,31,15,53,20.70
2009,05,31,15,54,20.80
2009,05,31,15,55,20.80
2009,05,31,15,56,20.80
2009,05,31,15,57,20.80
2009,05,31,15,58,20.80
2009,05,31,15,59,20.80
2009,05,31,16,00,20.80
2009,05,31,16,01,20.80
2009,05,31,16,02,20.80
2009,05,31,16,03,20.90
2009,05,31,16,04,20.90
2009,05,31,16,05,20.90
2009,05,31,16,06,20.90
2009,05,31,16,07,20.90
2009,05,31,16,08,20.90
2009,05,31,16,09,20.90
2009,05,31,16,10,20.80
2009,05,31,16,11,20.80
2009,05,31,16,12,20.80
2009,05,31,16,13,20.80
2009,05,31,16,14,20.80
2009,05,31,16,15,20.80
2009,05,31,16,16,20.80
2009,05,31,16,17,20.70
2009,05,31,16,18,20.70
2009,05,31,16,19,20.80
2009,05,31,16,20,20.80
2009,05,31,16,21,20.90
2009,05,31,16,22,21.00
2009,05,31,16,23,21.00
2009,05,31,16,24,21.10
2009,05,31,16,25,21.20
2009,05,31,16,26,21.30
2009,05,31,16,27,21.40
2009,05,31,16,28,21.40
2009,05,31,16,29,21.50
2009,05,31,16,30,21.60
2009,05,31,16,31,21.60
2009,05,31,16,32,21.60
2009,05,31,16,33,21.60
2009,05,31,16,34,21.70
2009,05,31,16,35,21.70
2009,05,31,16,36,21.80
2009,05,31,16,37,21.80
2009,05,31,16,38,21.80
2009,05,31,16,39,21.80
2009,05,31,16,40,21.70
2009,05,31,16,41,21.70
2009,05,31,16,42,21.80
2009,05,31,16,43,21.80
2009,05,31,16,44,21.80
2009,05,31,16,45,21.80
2009,05,31,16,46,21.90
2009,05,31,16,47,21.90
2009,05,31,16,48,21.90
2009,05,31,16,49,22.00
2009,05,31,16,50,22.00
2009,05,31,16,51,22.00
2009,05,31,16,52,22.10
2009,05,31,16,53,22.10
2009,05,31,16,54,22.10
2009,05,31,16,55,22.10
2009,05,31,16,56,22.10
2009,05,31,16,57,22.10
2009,05,31,16,58,22.10
2009,05,31,16,59,22.20
2009,05,31,17,00,22.20
2009,05,31,17,01,22.20
2009,05,31,17,02,22.20
2009,05,31,17,03,22.20
2009,05,31,17,04,22.20
2009,05,31,17,05,22.20
2009,05,31,17,06,22.20
2009,05,31,17,07,22.20
2009,05,31,17,08,22.20
2009,05,31,17,09,22.30
2009,05,31,17,10,22.40
2009,05,31,17,11,22.40
2009,05,31,17,12,22.40
2009,05,31,17,13,22.40
2009,05,31,17,14,22.50
2009,05,31,17,15,22.50
2009,05,31,17,16,22.60
2009,05,31,17,17,22.60
2009,05,31,17,18,22.60
2009,05,31,17,19,22.60
2009,05,31,17,20,22.60
2009,05,31,17,21,22.60
2009,05,31,17,22,22.50